Regional Weather Roundup
Issued by NWS

Home | Current Version | Previous Version | Text Only | Print | Product List | Glossary On
Versions: 1 2 3 4 5 6 7 8 9 10 11 12 13 14 15 16 17 18 19 20 21 22 23 24 25 26 27
000
ASUS46 KPQR 281210
RWROR

OREGON REGIONAL WEATHER ROUNDUP
NATIONAL WEATHER SERVICE PORTLAND OR
500 AM PDT WED JUN 28 2017

NOTE: "FAIR" INDICATES FEW OR NO CLOUDS BELOW 12,000 FEET WITH
NO SIGNIFICANT WEATHER AND/OR OBSTRUCTIONS TO VISIBILITY.

ORZ001>013-281300-
NORTHWEST OREGON


CITY           SKY/WX    TMP DP  RH WIND       PRES   REMARKS
ASTORIA        CLOUDY    56  51  84 W6        30.03S
6HR MIN TEMP:  56; 6HR MAX TEMP:  58;

NEWPORT        CLOUDY    55  50  82 N3        30.08S
PORTLAND       MOCLDY    57  49  74 NW5       30.04R
6HR MIN TEMP:  56; 6HR MAX TEMP:  62;

VANCOUVER WA   CLOUDY    57  51  80 CALM      30.03R
6HR MIN TEMP:  56; 6HR MAX TEMP:  62;

SCAPPOOSE      CLOUDY    52  50  93 CALM      30.03R
6HR MIN TEMP:  50; 6HR MAX TEMP:  60;

HILLSBORO        N/A     53  49  86 CALM      30.03R
6HR MIN TEMP:  49; 6HR MAX TEMP:  58;

AURORA         CLOUDY    55  50  83 CALM      30.04R
6HR MIN TEMP:  52; 6HR MAX TEMP:  61;

MCMINNVILLE    CLEAR     49  46  90 CALM      30.05R
6HR MIN TEMP:  49; 6HR MAX TEMP:  57;

SALEM          CLOUDY    53  48  83 SW3       30.03R
6HR MIN TEMP:  52; 6HR MAX TEMP:  60;

CORVALLIS      CLOUDY    48  46  93 CALM      30.06R
EUGENE         CLOUDY    50  50 100 S5        30.05R
6HR MIN TEMP:  45; 6HR MAX TEMP:  58;

$$

ORZ021-028-281300-
SOUTHWEST OREGON


CITY           SKY/WX    TMP DP  RH WIND       PRES   REMARKS
NORTH BEND     CLOUDY    57  52  82 N3        30.07S
6HR MIN TEMP:  55; 6HR MAX TEMP:  57;

BROOKINGS      CLOUDY    53  51  93 CALM      30.00R FOG
ROSEBURG       CLOUDY    58  51  78 N7        30.04R
6HR MIN TEMP:  58; 6HR MAX TEMP:  62;

SEXTON SUMMIT  FOG       47  47 100 N13       30.02S VSB 1/4
6HR MIN TEMP:  46; 6HR MAX TEMP:  52;

GRANTS PASS    FAIR      54  50  87 CALM      30.04R
MEDFORD        CLEAR     57  51  80 N5        29.98R
6HR MIN TEMP:  56; 6HR MAX TEMP:  68;

$$

ORZ014>016-041-281300-
COLUMBIA GORGE


CITY           SKY/WX    TMP DP  RH WIND       PRES   REMARKS
TROUTDALE      CLOUDY    58  50  75 W3        30.03R
6HR MIN TEMP:  57; 6HR MAX TEMP:  64;

HOOD RIVER     CLEAR     57  48  72 W13G22    29.94R
THE DALLES     CLEAR     63  50  62 NW16      29.89R
6HR MIN TEMP:  63; 6HR MAX TEMP:  72;

$$

ORZ029>031-041-044-049-050-061>064-502-503-505>511-281300-
EASTERN OREGON


CITY           SKY/WX    TMP DP  RH WIND       PRES   REMARKS
MADRAS         CLEAR     41  34  75 SE7       29.99R
REDMOND        CLEAR     42  34  73 SE3       29.98R
6HR MIN TEMP:  41; 6HR MAX TEMP:  62;

BEND           CLEAR     48  39  71 SW7       30.00R
PRINEVILLE     CLEAR     36  32  87 CALM      29.99S
KLAMATH FALLS  CLEAR     45  44  97 CALM      30.01S
6HR MIN TEMP:  45; 6HR MAX TEMP:  62;

LAKEVIEW       CLEAR     40  37  89 N6        30.04R
HERMISTON      CLEAR     61  45  55 SW12      29.84R
6HR MIN TEMP:  60; 6HR MAX TEMP:  69;

PENDLETON      CLEAR     57  42  57 SW5       29.88R
6HR MIN TEMP:  53; 6HR MAX TEMP:  64;

JOHN DAY       CLEAR     53  29  39 CALM      29.97R
MEACHAM        CLEAR     37  33  85 CALM      29.95R
6HR MIN TEMP:  37; 6HR MAX TEMP:  51;

LA GRANDE      CLEAR     57  34  41 NW12      29.90R
6HR MIN TEMP:  57; 6HR MAX TEMP:  66;

BAKER CITY     NOT AVBL
BURNS          CLEAR     44  32  62 W6        29.97R
6HR MIN TEMP:  42; 6HR MAX TEMP:  69;

ROME             N/A     52  38  58 S5        29.93R
6HR MIN TEMP:  51; 6HR MAX TEMP:  67;

ONTARIO        PTCLDY    66  38  35 W9        29.83R
6HR MIN TEMP:  66; 6HR MAX TEMP:  75; 6HR PCP: TRACE;

$$




USA.gov is the U.S. government's official web portal to all federal, state and local government web resources and services.